TimeMST,TemperatureF,Dew PointF,Humidity,Sea Level PressureIn,VisibilityMPH,Wind Direction,Wind SpeedMPH,Gust SpeedMPH,PrecipitationIn,Events,Conditions,WindDirDegrees,DateUTC
12:53 AM,35.6,28.4,75,30.36,10.0,ESE,10.4,-,N/A,,Clear,120,2011-11-23 07:53:00
1:53 AM,35.6,26.6,70,30.35,10.0,East,3.5,-,N/A,,Clear,100,2011-11-23 08:53:00
2:53 AM,34.0,27.0,75,30.32,10.0,ESE,4.6,-,N/A,,Clear,120,2011-11-23 09:53:00
3:53 AM,33.8,26.6,75,30.34,10.0,ESE,9.2,-,N/A,,Clear,110,2011-11-23 10:53:00
4:53 AM,33.8,26.6,75,30.34,10.0,SE,5.8,-,N/A,,Clear,140,2011-11-23 11:53:00
5:53 AM,32.0,26.1,79,30.35,10.0,SSE,10.4,-,N/A,,Clear,150,2011-11-23 12:53:00
6:53 AM,34.0,27.0,75,30.36,10.0,SE,6.9,-,N/A,,Clear,130,2011-11-23 13:53:00
7:53 AM,32.0,26.1,79,30.39,10.0,Calm,Calm,-,N/A,,Clear,0,2011-11-23 14:53:00
8:53 AM,36.0,28.0,73,30.38,10.0,Calm,Calm,-,N/A,,Clear,0,2011-11-23 15:53:00
9:53 AM,41.0,27.0,57,30.36,10.0,Calm,Calm,-,N/A,,Clear,0,2011-11-23 16:53:00
10:53 AM,45.0,28.9,53,30.34,10.0,West,3.5,-,N/A,,Clear,270,2011-11-23 17:53:00
11:53 AM,48.0,28.0,46,30.30,10.0,Calm,Calm,-,N/A,,Clear,0,2011-11-23 18:53:00
12:53 PM,51.1,26.1,38,30.24,10.0,Calm,Calm,-,N/A,,Clear,0,2011-11-23 19:53:00
1:53 PM,53.1,26.1,35,30.19,10.0,NW,3.5,-,N/A,,Clear,310,2011-11-23 20:53:00
2:53 PM,54.0,26.1,34,30.16,10.0,Calm,Calm,-,N/A,,Clear,0,2011-11-23 21:53:00
3:53 PM,54.0,27.0,35,30.15,10.0,West,4.6,-,N/A,,Clear,270,2011-11-23 22:53:00
4:53 PM,48.9,28.9,46,30.15,10.0,West,5.8,-,N/A,,Clear,270,2011-11-23 23:53:00
5:53 PM,43.0,28.0,56,30.18,10.0,Calm,Calm,-,N/A,,Clear,0,2011-11-24 00:53:00
6:53 PM,39.0,27.0,62,30.18,10.0,ENE,4.6,-,N/A,,Clear,60,2011-11-24 01:53:00
7:53 PM,39.2,26.6,61,30.16,10.0,East,4.6,-,N/A,,Clear,90,2011-11-24 02:53:00
8:53 PM,36.0,26.1,67,30.18,10.0,ENE,3.5,-,N/A,,Clear,70,2011-11-24 03:53:00
9:53 PM,37.0,26.1,65,30.16,10.0,East,4.6,-,N/A,,Clear,100,2011-11-24 04:53:00
10:53 PM,30.9,24.1,76,30.15,10.0,ENE,3.5,-,N/A,,Clear,70,2011-11-24 05:53:00
11:53 PM,30.9,24.1,76,30.13,10.0,Calm,Calm,-,N/A,,Clear,0,2011-11-24 06:53:00